This demonstration page uses our WeatherBlox Daily Observations layout. Learn more.

Left ArrowRight Arrow

41.55636, -103.73856

Hourly Observations for December 20, 2018

Temp ( °F °C ) Dew Point ( °F °C ) Humidity (%) Winds ( mph kmh ) Pressure ( in mb ) Visibility ( mi km ) Precip ( " mm )
12:58 am 00:58 Clear 27 -2.6 16 -9 62 62 NW 15 24 30.27 1025 10 16 N/A
1:58 am 01:58 Clear 27 -3 16 -9 64 64 NW 17 28 30.29 1026 10 16 N/A
2:58 am 02:58 Clear 26 -3.4 15 -9.2 65 65 NW 18 30 30.29 1026 10 16 N/A
3:58 am 03:58 Clear 25 -3.7 15 -9.2 66 66 NW 18 30 30.29 1026 10 16 N/A
4:58 am 04:58 Clear 26 -3.5 15 -9.3 65 65 NW 21 33 30.31 1026 10 16 N/A
6:58 am 06:58 Clear 25 -4 16 -8.7 70 70 NW 17 28 30.34 1027 10 16 N/A
7:58 am 07:58 Sunny 27 -3 18 -8 69 69 NW 17 28 30.35 1028 10 16 N/A
8:58 am 08:58 Sunny 32 -0.2 19 -7.3 59 59 NW 20 31 30.34 1028 10 16 N/A
9:58 am 09:58 Sunny 36 2.2 20 -6.6 53 53 NW 16 26 30.34 1027 10 16 N/A
10:58 am 10:58 Sunny 39 4 15 -9.5 37 37 NW 20 31 30.30 1026 10 16 N/A
12:56 pm 12:56 Sunny 43 6.2 16 -9.1 33 33 NNW 20 31 30.23 1024 10 16 N/A
1:56 pm 13:56 Sunny 44 6.4 16 -8.9 33 33 NNW 17 28 30.20 1023 10 16 N/A
2:56 pm 14:56 Sunny 43 6.3 17 -8.2 35 35 NW 13 20 30.20 1023 10 16 N/A
3:56 pm 15:56 Sunny 39 4.1 19 -7.5 43 43 NNW 9 15 30.19 1023 10 16 N/A
4:56 pm 16:56 Clear 33 0.3 19 -7.3 57 57 NNW 8 13 30.23 1024 10 16 N/A
5:58 pm 17:58 Clear 29 -1.7 19 -7.5 65 65 NNE 7 11 30.21 1023 10 16 N/A
6:58 pm 18:58 Clear 31 -0.5 20 -6.7 63 63 W 6 9 30.19 1022 10 16 N/A
7:58 pm 19:58 Clear 27 -2.6 19 -7.1 72 72 SW 7 11 30.18 1022 10 16 N/A
8:58 pm 20:58 Clear 25 -3.7 18 -8 72 72 WSW 9 15 30.12 1020 10 16 N/A
9:58 pm 21:58 Clear 26 -3.6 17 -8.6 69 69 W 3 6 30.09 1019 10 16 N/A
10:58 pm 22:58 Clear 26 -3.4 17 -8.2 70 70 WSW 7 11 30.04 1017 10 16 N/A
11:58 pm 23:58 Clear 27 -3 17 -8.6 66 66 WSW 10 17 30.09 1019 10 16 N/A

Powered by AerisWeather